Location: Quebec
(46.8000°N, 71.2500°W)
Time: 21:12:18
(UTC-04:00)

N. Korean satellite - Pass Details

Date: 16 October 2017
Orbit: 459 x 517 km, 97.2° (Epoch: 21 October)

Event Time Altitude Azimuth Distance (km) Brightness Sun altitude
Rises 18:37:11 0° 164° (SSE) 2,534 10.1 -7.9°
Reaches altitude 10° 18:39:15 10° 163° (SSE) 1,650 9.1 -8.2°
Maximum altitude 18:42:48 82° 78° (ENE) 484 6.4 -8.8°
Drops below altitude 10° 18:46:19 10° 349° (N) 1,637 9.3 -9.4°
Sets 18:48:21 0° 349° (N) 2,511 10.3 -9.8°
